| time (UTC) | temp C | wind direction | speed KPH | gust KPH | rain 1hr cm | rain 24hr cm | rain mn cm | humidity % | barometer mb |
| 20260504223603 | 17 | 97 | 1.6 | 4.8 | 0.00 | 0.00 | 0.00 | 66 | 1014.2 |
| 20260504222724 | 18 | 80 | 1.6 | 4.8 | 0.00 | 0.00 | 0.00 | 65 | 1014.2 |
| 20260504221824 | 18 | 62 | 1.6 | 4.8 | 0.00 | 0.00 | 0.00 | 64 | 1014.2 |
| 20260504220903 | 18 | 82 | 1.6 | 6.4 | 0.00 | 0.00 | 0.00 | 63 | 1014.3 |
| 20260504220003 | 19 | 42 | 3.2 | 6.4 | 0.00 | 0.00 | 0.00 | 62 | 1014.3 |
| 20260504215403 | 19 | 33 | 1.6 | 6.4 | 0.00 | 0.00 | 0.00 | 61 | 1014.4 |
| 20260504214524 | 20 | 63 | 1.6 | 6.4 | 0.00 | 0.00 | 0.00 | 60 | 1014.4 |
| 20260504213603 | 20 | 56 | 1.6 | 6.4 | 0.00 | 0.00 | 0.00 | 61 | 1014.5 |
| 20260504212724 | 20 | 15 | 1.6 | 8.0 | 0.00 | 0.00 | 0.00 | 60 | 1014.4 |
| 20260504211803 | 19 | 18 | 1.6 | 6.4 | 0.00 | 0.00 | 0.00 | 61 | 1014.5 |
| 20260504210903 | 19 | 330 | 3.2 | 6.4 | 0.00 | 0.00 | 0.00 | 62 | 1014.5 |
| 20260504210003 | 19 | 340 | 3.2 | 9.7 | 0.00 | 0.00 | 0.00 | 64 | 1014.6 |
| 20260504205403 | 19 | 321 | 3.2 | 9.7 | 0.00 | 0.00 | 0.00 | 66 | 1014.6 |
| 20260504204503 | 18 | 328 | 3.2 | 9.7 | 0.00 | 0.00 | 0.00 | 65 | 1014.6 |
| 20260504203603 | 18 | 265 | 1.6 | 6.4 | 0.00 | 0.00 | 0.00 | 62 | 1014.6 |
| 20260504202703 | 19 | 276 | 1.6 | 6.4 | 0.00 | 0.00 | 0.00 | 61 | 1014.6 |
| 20260504201803 | 19 | 327 | 1.6 | 8.0 | 0.00 | 0.00 | 0.00 | 61 | 1014.6 |
| 20260504200924 | 19 | 343 | 1.6 | 8.0 | 0.00 | 0.00 | 0.00 | 60 | 1014.7 |
| 20260504200003 | 20 | 318 | 1.6 | 6.4 | 0.00 | 0.00 | 0.00 | 60 | 1014.5 |
| 20260504195403 | 20 | 316 | 3.2 | 8.0 | 0.00 | 0.00 | 0.00 | 60 | 1014.5 |
| 20260504194503 | 20 | 271 | 1.6 | 4.8 | 0.00 | 0.00 | 0.00 | 61 | 1014.5 |
| 20260504193624 | 19 | 10 | 1.6 | 6.4 | 0.00 | 0.00 | 0.00 | 63 | 1014.5 |
| 20260504192703 | 18 | 45 | 0.0 | 3.2 | 0.00 | 0.00 | 0.00 | 61 | 1014.5 |
| 20260504191803 | 18 | 18 | 1.6 | 6.4 | 0.00 | 0.00 | 0.00 | 60 | 1014.8 |
| 20260504190903 | 18 | 76 | 1.6 | 6.4 | 0.00 | 0.00 | 0.00 | 60 | 1014.9 |
| 20260504190003 | 18 | 1 | 0.0 | 1.6 | 0.00 | 0.00 | 0.00 | 61 | 1014.8 |
| 20260504185403 | 18 | 4 | 0.0 | 3.2 | 0.00 | 0.00 | 0.00 | 62 | 1014.8 |
| 20260504184524 | 18 | 10 | 0.0 | 3.2 | 0.00 | 0.00 | 0.00 | 64 | 1014.7 |
| 20260504183624 | 18 | 40 | 0.0 | 4.8 | 0.00 | 0.00 | 0.00 | 64 | 1014.8 |
| 20260504182703 | 17 | 52 | 1.6 | 3.2 | 0.00 | 0.00 | 0.00 | 64 | 1014.8 |
| 20260504181803 | 17 | 93 | 0.0 | 4.8 | 0.00 | 0.00 | 0.00 | 65 | 1014.9 |
| 20260504180924 | 17 | 95 | 0.0 | 6.4 | 0.00 | 0.00 | 0.00 | 64 | 1015.0 |
| 20260504180024 | 17 | 97 | 0.0 | 6.4 | 0.00 | 0.00 | 0.00 | 65 | 1014.9 |
| 20260504175424 | 17 | 135 | 0.0 | 4.8 | 0.00 | 0.00 | 0.00 | 65 | 1015.0 |
| 20260504174524 | 17 | 193 | 0.0 | 3.2 | 0.00 | 0.00 | 0.00 | 66 | 1015.0 |
| 20260504173624 | 17 | 143 | 1.6 | 4.8 | 0.00 | 0.00 | 0.00 | 67 | 1014.8 |
| 20260504172724 | 16 | 84 | 0.0 | 3.2 | 0.00 | 0.00 | 0.00 | 68 | 1014.8 |
| 20260504171824 | 16 | 86 | 0.0 | 3.2 | 0.00 | 0.00 | 0.00 | 68 | 1014.7 |
| 20260504170903 | 16 | 106 | 1.6 | 4.8 | 0.00 | 0.00 | 0.00 | 71 | 1014.7 |
| 20260504150903 | 14 | 184 | 1.6 | 4.8 | 0.00 | 0.00 | 0.00 | 74 | 1014.2 |
| 20260504140924 | 12 | 338 | 0.0 | 1.6 | 0.00 | 0.00 | 0.00 | 81 | 1014.3 |
| 20260504081805 | 13 | 301 | 3.2 | 8.0 | 0.00 | 0.00 | 0.00 | 77 | 1014.2 |
| 20260504080903 | 13 | 297 | 3.2 | 8.0 | 0.00 | 0.00 | 0.00 | 78 | 1014.1 |
| 20260504050003 | 14 | 285 | 1.6 | 6.4 | 0.00 | 0.00 | 0.00 | 74 | 1013.2 |
| 20260504045403 | 14 | 284 | 1.6 | 6.4 | 0.00 | 0.00 | 0.00 | 72 | 1013.1 |
| 20260504044503 | 14 | 279 | 1.6 | 8.0 | 0.00 | 0.00 | 0.00 | 72 | 1012.9 |
| 20260504043603 | 14 | 254 | 3.2 | 8.0 | 0.00 | 0.00 | 0.00 | 72 | 1012.8 |
| 20260504042725 | 14 | 266 | 1.6 | 6.4 | 0.00 | 0.00 | 0.00 | 72 | 1012.8 |
| 20260504041824 | 14 | 274 | 1.6 | 6.4 | 0.00 | 0.00 | 0.00 | 71 | 1012.9 |
| 20260504040924 | 15 | 305 | 1.6 | 4.8 | 0.00 | 0.00 | 0.00 | 70 | 1012.7 |
| 20260504040024 | 15 | 326 | 3.2 | 4.8 | 0.00 | 0.00 | 0.00 | 69 | 1012.5 |
| 20260504035424 | 15 | 315 | 1.6 | 4.8 | 0.00 | 0.00 | 0.00 | 68 | 1012.5 |
| 20260504034524 | 15 | 305 | 1.6 | 4.8 | 0.00 | 0.00 | 0.00 | 67 | 1012.4 |
| 20260504033624 | 15 | 289 | 1.6 | 4.8 | 0.00 | 0.00 | 0.00 | 66 | 1012.3 |
| 20260504032724 | 16 | 307 | 3.2 | 8.0 | 0.00 | 0.00 | 0.00 | 66 | 1012.3 |
| 20260504031824 | 16 | 290 | 3.2 | 6.4 | 0.00 | 0.00 | 0.00 | 65 | 1012.2 |
| 20260504030924 | 16 | 280 | 3.2 | 11.3 | 0.00 | 0.00 | 0.00 | 65 | 1012.1 |
| 20260504030024 | 16 | 276 | 3.2 | 12.9 | 0.00 | 0.00 | 0.00 | 64 | 1012.0 |
| 20260504025403 | 16 | 289 | 3.2 | 12.9 | 0.00 | 0.00 | 0.00 | 63 | 1011.9 |
| 20260504024503 | 17 | 312 | 3.2 | 9.7 | 0.00 | 0.00 | 0.00 | 62 | 1011.6 |
| 20260504023603 | 17 | 321 | 3.2 | 11.3 | 0.00 | 0.00 | 0.00 | 61 | 1011.3 |
| 20260504022703 | 18 | 297 | 3.2 | 11.3 | 0.00 | 0.00 | 0.00 | 60 | 1011.3 |
| 20260504021803 | 18 | 284 | 4.8 | 14.5 | 0.00 | 0.00 | 0.00 | 59 | 1011.3 |
| 20260504020924 | 18 | 305 | 4.8 | 12.9 | 0.00 | 0.00 | 0.00 | 58 | 1011.1 |
| 20260504020003 | 18 | 287 | 4.8 | 17.7 | 0.00 | 0.00 | 0.00 | 58 | 1011.0 |
| 20260504015403 | 19 | 294 | 4.8 | 16.1 | 0.00 | 0.00 | 0.00 | 58 | 1011.0 |
| 20260504014503 | 19 | 301 | 4.8 | 16.1 | 0.00 | 0.00 | 0.00 | 58 | 1011.0 |
| 20260504013603 | 19 | 286 | 4.8 | 17.7 | 0.00 | 0.00 | 0.00 | 58 | 1011.1 |
| 20260504012703 | 19 | 271 | 4.8 | 17.7 | 0.00 | 0.00 | 0.00 | 57 | 1011.0 |
| 20260504011803 | 19 | 274 | 6.4 | 16.1 | 0.00 | 0.00 | 0.00 | 59 | 1011.0 |
| 20260504010924 | 19 | 290 | 6.4 | 16.1 | 0.00 | 0.00 | 0.00 | 57 | 1011.1 |
| 20260504010003 | 20 | 271 | 6.4 | 16.1 | 0.00 | 0.00 | 0.00 | 58 | 1011.2 |
| 20260504005424 | 20 | 279 | 6.4 | 17.7 | 0.00 | 0.00 | 0.00 | 57 | 1011.0 |
| 20260504004503 | 20 | 276 | 4.8 | 19.3 | 0.00 | 0.00 | 0.00 | 57 | 1011.0 |
| 20260504003603 | 20 | 275 | 6.4 | 19.3 | 0.00 | 0.00 | 0.00 | 57 | 1011.0 |
| 20260504002703 | 20 | 265 | 6.4 | 19.3 | 0.00 | 0.00 | 0.00 | 57 | 1010.8 |
| 20260504001803 | 21 | 271 | 6.4 | 19.3 | 0.00 | 0.00 | 0.00 | 54 | 1010.9 |
| 20260504000903 | 21 | 264 | 4.8 | 16.1 | 0.00 | 0.00 | 0.00 | 54 | 1010.8 |
| 20260504000003 | 22 | 271 | 4.8 | 14.5 | 0.00 | 0.00 | 0.00 | 53 | 1010.8 |
| 20260503235403 | 22 | 307 | 4.8 | 17.7 | 0.00 | 0.00 | 0.00 | 53 | 1010.7 |
| 20260503234503 | 22 | 282 | 4.8 | 17.7 | 0.00 | 0.00 | 0.00 | 54 | 1010.7 |
| 20260503233603 | 22 | 309 | 4.8 | 17.7 | 0.00 | 0.00 | 0.00 | 54 | 1010.7 |
| 20260503232703 | 22 | 277 | 4.8 | 12.9 | 0.00 | 0.00 | 0.00 | 53 | 1010.7 |
| 20260503231803 | 22 | 290 | 4.8 | 17.7 | 0.00 | 0.00 | 0.00 | 53 | 1010.8 |
| 20260503230903 | 22 | 290 | 4.8 | 19.3 | 0.00 | 0.00 | 0.00 | 52 | 1010.9 |
| 20260503230003 | 22 | 325 | 4.8 | 17.7 | 0.00 | 0.00 | 0.00 | 54 | 1010.9 |
| 20260503225403 | 22 | 312 | 4.8 | 17.7 | 0.00 | 0.00 | 0.00 | 52 | 1010.9 |
| 20260503224503 | 22 | 285 | 4.8 | 16.1 | 0.00 | 0.00 | 0.00 | 53 | 1010.9 |